OBJECT AQ (43796 NORAD) Tracking and Keplerian Element Data

This shows tracking and keplerian element data for the satellite.

Feedback or suggestion? Click here.




ElementValue
Catalog43796
NameOBJECT AQ
Epoch Orbit454
Epoch Day10.48476778
Epoch Year2019
RAAN84.2987
Inclination97.7631
Eccentricity0.0016584
Argument of Perigee123.203
Mean Anonmoly237.0784
Mean Motion14.95644184
Decay Rate6.94E-06
L11 43796U 18099AQ 19010.48476778 .00000694 00000-0 67560-4 0 9995
L22 43796 097.7631 084.2987 0016584 123.2030 237.0784 14.95644184004547

Live tracking and technical data element details for OBJECT AQ (NORAD 43796). OBJECT AQ can be tracked NOW for your location showing map with azimuth and elevation plus other details from your city location.

Track the satellite on the map from your city or location and see movement details for azimuth, elevation, latitude, longitude, range, height, and movement on the map or in text.







IsCatalogInMostPopularTable: catalog: 43796, numindb: 20
Update: records affected: 1



GetName: 43796 OBJECT AQ

Hit Count: updated at: Thu, 17 Jan 2019 15:41:11 GMT